EW2889 Weather Reports


Display with metric or nautical units.
time (UTC)temp
F
wind
direction
speed
MPH
gust
MPH
rain 1hr
in
rain 24hr
in
rain mn
in
humidity
%
barometer
mb
20171217002409 0 0.0 0.0 0.00 0.00 0.00 1023.2
20171217000925 0 0.0 0.0 0.00 0.00 0.00 1023.0
20171216235402 35 143 0.0 0.0 0.00 0.00 0.00 65 1022.7
20171216233905 36 146 0.0 0.0 0.00 0.00 0.00 64 1022.6
20171216232510 37 146 0.0 0.0 0.00 0.00 0.00 62 1022.4
20171216230903 38 145 0.0 1.0 0.00 0.00 0.00 57 1022.4
20171216225437 39 145 0.0 1.0 0.00 0.00 0.00 57 1022.0
20171216223859 39 172 0.0 0.0 0.00 0.00 0.00 56 1021.9
20171216222457 40 172 0.0 0.0 0.00 0.00 0.00 52 1021.8
20171216220859 42 207 0.0 0.0 0.00 0.00 0.00 50 1021.6
20171216215453 43 164 0.0 1.0 0.00 0.00 0.00 47 1021.6
20171216213857 44 238 0.0 3.0 0.00 0.00 0.00 45 1021.5
20171216212414 45 229 1.0 4.0 0.00 0.00 0.00 43 1021.1
20171216211003 46 276 1.0 5.0 0.00 0.00 0.00 42 1021.0
20171216205432 47 297 1.0 6.0 0.00 0.00 0.00 40 1020.9
20171216203857 47 238 1.0 11.0 0.00 0.00 0.00 40 1020.8
20171216202521 47 161 1.0 6.0 0.00 0.00 0.00 39 1020.6
20171216200901 47 214 1.0 6.0 0.00 0.00 0.00 39 1020.6
20171216195356 47 227 2.0 7.0 0.00 0.00 0.00 39 1020.6
20171216193958 47 216 1.0 5.0 0.00 0.00 0.00 39 1020.8
20171216192356 47 163 1.0 11.0 0.00 0.00 0.00 39 1020.8
20171216190914 47 176 2.0 6.0 0.00 0.00 0.00 40 1020.6
20171216185432 47 212 2.0 7.0 0.00 0.00 0.00 39 1021.0
20171216183846 47 253 2.0 6.0 0.00 0.00 0.00 41 1021.2
20171216182426 46 94 2.0 5.0 0.00 0.00 0.00 40 1021.4
20171216180843 46 219 2.0 8.0 0.00 0.00 0.00 38 1021.6
20171216175344 46 247 1.0 4.0 0.00 0.00 0.00 40 1021.8
20171216173852 45 203 2.0 5.0 0.00 0.00 0.00 40 1022.1
20171216172345 45 34 0.0 6.0 0.00 0.00 0.00 42 1022.4
20171216170858 45 303 1.0 3.0 0.00 0.00 0.00 41 1022.7
20171216165410 45 270 0.0 3.0 0.00 0.00 0.00 45 1023.0
20171216163835 44 259 0.0 4.0 0.00 0.00 0.00 45 1023.0
20171216162334 43 254 0.0 2.0 0.00 0.00 0.00 50 1022.5
20171216160826 43 257 1.0 5.0 0.00 0.00 0.00 51 1022.9
20171216155343 41 257 0.0 2.0 0.00 0.00 0.00 52 1022.7
20171216153818 41 269 1.0 3.0 0.00 0.00 0.00 57 1023.3
20171216152316 39 221 1.0 4.0 0.00 0.00 0.00 59 1023.9
20171216150824 38 205 0.0 4.0 0.00 0.00 0.00 62 1024.0
20171216145315 36 221 0.0 4.0 0.00 0.00 0.00 66 1023.8
20171216143823 35 238 1.0 3.0 0.00 0.00 0.00 67 1023.5
20171216142403 33 253 1.0 3.0 0.00 0.00 0.00 70 1023.8
20171216140754 32 279 0.0 2.0 0.00 0.00 0.00 76 1023.9
20171216135250 31 256 0.0 2.0 0.00 0.00 0.00 80 1023.7
20171216133812 29 249 0.0 2.0 0.00 0.00 0.00 86 1023.7
20171216132253 27 229 0.0 2.0 0.00 0.00 0.00 93 1023.4
20171216130835 24 288 0.0 0.0 0.00 0.00 0.00 95 1023.0
20171216125243 0 0.0 0.0 0.00 0.00 0.00 1023.2
20171216123746 0 0.0 0.0 0.00 0.00 0.00 1023.0
20171216122232 0 0.0 0.0 0.00 0.00 0.00 1022.7
20171216120751 0 0.0 0.0 0.00 0.00 0.00 1022.4
20171216115239 0 0.0 0.0 0.00 0.00 0.00 1022.4
20171216113915 0 0.0 0.0 0.00 0.00 0.00 1022.4
20171216112249 0 0.0 0.0 0.00 0.00 0.00 1021.8
20171216110750 0 0.0 0.0 0.00 0.00 0.00 1021.8
20171216105223 0 0.0 0.0 0.00 0.00 0.00 1021.6
20171216103731 0 0.0 0.0 0.00 0.00 0.00 1021.5
20171216102151 0 0.0 0.0 0.00 0.00 0.00 1021.0
20171216100655 0 0.0 0.0 0.00 0.00 0.00 1020.7
20171216095146 0 0.0 0.0 0.00 0.00 0.00 1020.5
20171216093637 0 0.0 0.0 0.00 0.00 0.00 1020.3
20171216092212 0 0.0 0.0 0.00 0.00 0.00 1019.8
20171216090640 0 0.0 0.0 0.00 0.00 0.00 1019.6
20171216085203 0 0.0 0.0 0.00 0.00 0.00 1019.6
20171216083633 0 0.0 0.0 0.00 0.00 0.00 1019.5
20171216082154 0 0.0 0.0 0.00 0.00 0.00 1019.7
20171216080651 0 0.0 0.0 0.00 0.00 0.00 1019.5
20171216075114 0 0.0 0.0 0.00 0.00 0.00 1019.3
20171216073643 0 0.0 0.0 0.00 0.00 0.00 1019.4
20171216072106 0 0.0 0.0 0.00 0.00 0.00 1019.2
20171216070557 0 0.0 0.0 0.00 0.00 0.00 1019.0
20171216065051 0 0.0 0.0 0.00 0.00 0.00 1018.7
20171216063657 0 0.0 0.0 0.00 0.00 0.00 1018.7
20171216062039 0 0.0 0.0 0.00 0.00 0.00 1018.6
20171216060537 0 0.0 0.0 0.00 0.00 0.00 1018.3
20171216055036 0 0.0 0.0 0.00 0.00 0.00 1018.2
20171216053529 0 0.0 0.0 0.00 0.00 0.00 1018.0
20171216052032 0 0.0 0.0 0.00 0.00 0.00 1017.7
20171216050606 0 0.0 0.0 0.00 0.00 0.00 1017.4
20171216045022 0 0.0 0.0 0.00 0.00 0.00 1017.4
20171216043549 0 0.0 0.0 0.00 0.00 0.00 1017.5
20171216042050 0 0.0 0.0 0.00 0.00 0.00 1017.3
20171216040519 0 0.0 0.0 0.00 0.00 0.00 1017.0
20171216035013 0 0.0 0.0 0.00 0.00 0.00 1017.1
20171216033501 0 0.0 0.0 0.00 0.00 0.00 1016.9
20171216032434 0 0.0 0.0 0.00 0.00 0.00 1016.8
20171216030448 0 0.0 0.0 0.00 0.00 0.00 1016.8
20171216025017 0 0.0 0.0 0.00 0.00 0.00 1016.6
20171216023436 0 0.0 0.0 0.00 0.00 0.00 1016.5
20171216021951 0 0.0 0.0 0.00 0.00 0.00 1016.3
20171216020449 0 0.0 0.0 0.00 0.00 0.00 1016.1
20171216015005 0 0.0 0.0 0.00 0.00 0.00 1015.9
20171216013447 0 0.0 0.0 0.00 0.00 0.00 1015.6
20171216012102 0 0.0 0.0 0.00 0.00 0.00 1015.4
20171216010728 0 0.0 0.0 0.00 0.00 0.00 1015.2
20171216004916 0 0.0 0.0 0.00 0.00 0.00 1014.9
20171216003429 0 0.0 0.0 0.00 0.00 0.00 1014.9